Regional Weather Roundup
Issued by NWS

Home | Current Version | Previous Version | Text Only | Print | Product List | Glossary Off
Versions: 1 2 3 4 5 6 7 8 9 10 11 12 13 14 15 16 17 18 19 20 21 22 23 24 25 26 27 28 29 30 31 32 33 34 35 36 37 38 39 40 41 42 43 44 45 46 47 48 49 50

000
ASUS43 KMKX 101520
RWRWI

WISCONSIN REGIONAL WEATHER ROUNDUP
NATIONAL WEATHER SERVICE MILWAUKEE/SULLIVAN WI
900 AM CST WED FEB 10 2016

NOTE: "FAIR" INDICATES FEW OR NO CLOUDS BELOW 12,000 FEET WITH NO
SIGNIFICANT WEATHER AND/OR OBSTRUCTIONS TO VISIBILITY.

WIZ001-002-006>008-014>016-023>028-101600-
NORTHWEST WISCONSIN

CITY           SKY/WX    TMP DP  RH WIND       PRES   REMARKS
SUPERIOR ARPT  CLOUDY    -4 -10  76 CALM      30.15S
ASHLAND        CLOUDY     3  -4  72 N9        30.11R WCI -12
HAYWARD        CLOUDY     2  -4  76 VRB3      30.05S
SIREN          CLOUDY    -4  -9  79 NW6       30.12R WCI -17
CUMBERLAND     CLOUDY    -6  -9  84 NW6       30.08R WCI -18
RICE LAKE      CLOUDY    -2  -7  78 W5        30.10R WCI -12
CHETEK         CLOUDY    -2  -7  78 CALM      30.08R
LADYSMITH      CLOUDY     4  -3  73 NW7       30.05S WCI  -8
EAU CLAIRE     CLOUDY     0  -7  72 NW6       30.09R WCI -12
MENOMONIE      PTSUNNY    2  -5  73 W7        30.12R WCI -11
NEW RICHMOND   CLOUDY    -1  -8  73 N8        30.12R WCI -15
OSCEOLA        MOSUNNY    0  -6  74 N7        30.16S WCI -13
$$

WIZ003>005-009-010-017-018-101600-
NORTH CENTRAL WISCONSIN

CITY           SKY/WX    TMP DP  RH WIND       PRES   REMARKS
MANITOWISH WTR CLOUDY     3  -3  75 N6        29.97R WCI  -8
ARBOR VITAE    CLOUDY     5  -3  71 N12       29.96S WCI -11
WOODRUFF       CLOUDY     5  -3  71 N12       29.96S WCI -11
RHINELANDER    CLOUDY     4  -6  63 N7        29.96R WCI  -8
EAGLE RIVER    CLOUDY     3  -6  65 N9        29.95R WCI -12
LAND O LAKES   LGT SNOW   3  -3  75 N10       29.96R WCI -12
PHILLIPS       CLOUDY     2  -4  73 N8        29.99R WCI -11
TOMAHAWK       CLOUDY     3  -3  75 NW7       29.98S WCI  -9
MEDFORD        CLOUDY     0  -5  79 NW8       29.98R WCI -15
MERRILL        CLOUDY     5  -3  71 N12       29.99F WCI -11
$$

WIZ029-030-035-036-043>047-101600-
CENTRAL WISCONSIN

CITY           SKY/WX    TMP DP  RH WIND       PRES   REMARKS
WAUSAU         CLOUDY     7  -2  66 N7        29.98S WCI  -5
MOSINEE        CLOUDY     5   0  78 NW10      30.00S WCI -10
MARSHFIELD     SUNNY      1  -7  68 NW12      30.00R WCI -16
STEVENS POINT  CLOUDY     5  -2  71 N7        30.01S WCI  -7
WAUPACA        CLOUDY    12  -2  53 N10G16    30.02S WCI  -2
WAUTOMA        CLOUDY     8  -2  64 NW8       30.03S WCI  -4
WISC RAPIDS    CLOUDY     5  -5  63 N7        30.04R WCI  -7
CAMP DOUGLAS   MOSUNNY    1  -4  78 NW6       30.05F WCI -10
$$

WIZ011>013-019>022-031-037>040-048>050-101600-
NORTHEAST WISCONSIN

CITY           SKY/WX    TMP DP  RH WIND       PRES   REMARKS
ANTIGO         CLOUDY     4  -5  66 N17G23    29.95S WCI -16
SHAWANO        CLOUDY    10  -5  50 NW10G17   30.02R WCI  -3
OCONTO         SUNNY      8  -5  55 N9G20     30.01S WCI  -6
STURGEON BAY   SUNNY      9  -6  52 NW18G25   29.99S WCI -10
GREEN BAY      SUNNY      9  -4  55 NW13      30.01R WCI  -7
MANITOWOC      SUNNY     10  -3  55 N20       30.00R WCI  -9
APPLETON       PTSUNNY    9  -6  52 NW13G20   29.99R WCI  -7
CLINTONVILLE   CLOUDY    10  -6  48 N10G22    30.02R WCI  -3
OSHKOSH        MOSUNNY    9  -4  55 NW16      30.01R WCI  -8
$$

WIZ032>034-041-042-053>061-101600-
SOUTHWEST WISCONSIN

CITY           SKY/WX    TMP DP  RH WIND       PRES   REMARKS
LA CROSSE      CLOUDY     3  -6  66 NW6       30.12R WCI  -8
SPARTA         MOSUNNY   -3  -8  78 CALM      30.08F
VIROQUA        CLOUDY     0  -7  73 NW7       30.03S WCI -13
BOSCOBEL       CLOUDY     6  -1  73 CALM      30.11S
PRAIRIE DU CHI MOSUNNY    6  -5  60 NW6       30.12S WCI  -5
PLATTEVILLE    MOSUNNY    5  -4  67 NW8       30.07R WCI  -8
$$

WIZ056-057-062-063-064-067-068-101600-
SOUTH CENTRAL WISCONSIN

CITY           SKY/WX    TMP DP  RH WIND       PRES   REMARKS
REEDSBURG      SUNNY      3  -5  69 NW6       30.05S WCI  -8
BARABOO/DELLS  SUNNY      4  -5  65 N3        30.04S
LONE ROCK      NOT AVBL
MINERAL POINT  SUNNY      5  -4  66 NW8       30.03S WCI  -8
MADISON        MOSUNNY    6  -4  63 NW8       30.04S WCI  -7
MIDDLETON      SUNNY      7  -2  65 NW8       30.05S WCI  -5
WATERTOWN      CLOUDY     9   1  69 NW10      30.02R WCI  -5
MONROE         SUNNY      9   0  66 NW12G17   30.03S WCI  -6
JANESVILLE     SUNNY     10   0  61 NW12      30.04  WCI  -4
$$

WIZ051-052-058>065-066-070>072-101600-
SOUTHEAST WISCONSIN

CITY           SKY/WX    TMP DP  RH WIND       PRES   REMARKS
MILWAUKEE      MOSUNNY   12  -1  56 NW13      30.01R WCI  -3
WAUKESHA       PTSUNNY    9  -2  61 NW12G23   30.00R WCI  -6
MILWAUKEE/TIMM SUNNY     10  -2  56 NW13G20   30.01R WCI  -5
RACINE         SUNNY     11  -2  56 N14G22    30.02R WCI  -5
BURLINGTON     CLOUDY    10   0  64 W10       30.01R WCI  -4
KENOSHA        PTSUNNY   11   0  61 NW13      30.01R WCI  -4
FOND DU LAC    MOSUNNY   10  -4  53 NW14      30.01S WCI  -6
SHEBOYGAN      SUNNY      9  -4  55 NW12      29.99R WCI  -6
WEST BEND      CLOUDY    10  -4  52 NW14      29.99S WCI  -5
JUNEAU         MOSUNNY    8  -1  66 NW10      30.02R WCI  -7
$$

LSZ147-162-101600-
LAKE SUPERIOR

STATION/POSITION TIME  TEMP    WIND        PRES    WAVE
                       AIR SEA DIR/SP/G            HT/PER
                 (UTC) (F)     (DEG/KT/KT) (MB)    (FT/S)
DEVILS ISLAND    1500    4     360/ 13/ 17 1021.8R
PORT WING        1340    5      10/ 10/ 14 1020.0S
SAXON HARBOR     1440    8                 1018.6S
$$

LMZ867-665-643>646-101600-
LAKE MICHIGAN

STATION/POSITION TIME  TEMP    WIND        PRES    WAVE
                       AIR SEA DIR/SP/G            HT/PER
                 (UTC) (F)     (DEG/KT/KT) (MB)    (FT/S)
CHAMBERS ISLAND  1400    8     300/ 17/ 23 1014.6R
ALGOMA LAKESHORE 1411          330/ 13/ 18   N/A
KEWAUNEE LAKESHO 1400    7     320/ 12/ 18 1014.3R
SHEBOYGAN LAKESH 1500    9     320/ 15/ 18 1017.6R
PORT WASHINGTON  1440   11     320/  7/ 20 1017.3R
MILWAUKEE LAKESH 1410   11     330/  9/ 14   N/A
KENOSHA   LAKESH 1500   11     340/ 14/ 18 1016.6R
$$

TC  - TEMPERATURE IN CELSIUS
VSB - VISIBILITY IN STATUTE MILES
WCI - WIND CHILL INDEX
HX  - HEAT INDEX




USA.gov is the U.S. government's official web portal to all federal, state and local government web resources and services.